Tracking 30970 objects as of 3-Jul-2025
HD Live streaming from Space Station
objects crossing your sky now

STARLINK-2511

Track STARLINK-2511 now!
10-day predictions
STARLINK-2511 is classified as:


NORAD ID: 48332
Int'l Code: 2021-036BJ
Perigee: 553.4 km
Apogee: 555.3 km
Inclination: 53.1 °
Period: 95.6 minutes
Semi major axis: 6925 km
RCS: Unknown
Launch date: April 29, 2021
Source: United States (US)
Launch site: AIR FORCE EASTERN TEST RANGE (AFETR)
Your satellite tracking list
Your tracking list is empty




NASA's NSSDC Master Catalog

Two Line Element Set (TLE):
1 48332U 21036BJ  25183.88071382  .00000166  00000-0  30031-4 0  9992
2 48332  53.0541 143.0577 0001354  89.0947 271.0197 15.06395778230381
Source of the keplerian elements: AFSPC